timestamp,wind_dir_avg,wind_spd_avg,wind_spd_max_dir,wind_spd_gust,battery_voltage,lat,long
2023-04-14 00:04:00+00:00,200.0,1.9,199.0,2.16,12.49,47.59359,-54.27349
2023-04-14 00:14:01+00:00,212.0,4.5,211.0,4.87,12.33,47.59359,-54.27349
2023-04-14 00:24:01+00:00,221.0,3.55,221.0,3.8,12.33,47.59359,-54.27349
2023-04-14 00:34:01+00:00,208.0,3.94,210.0,4.57,12.33,47.59359,-54.27349
2023-04-14 00:44:01+00:00,186.0,3.6,189.0,3.74,12.33,47.59359,-54.27349
2023-04-14 00:54:01+00:00,199.0,3.79,199.0,4.0,12.33,47.59359,-54.27349
2023-04-14 01:04:01+00:00,213.0,4.64,215.0,5.49,12.33,47.59359,-54.27349
2023-04-14 01:14:00+00:00,210.0,4.95,216.0,5.7,12.33,47.59359,-54.27349
2023-04-14 01:24:00+00:00,187.0,3.96,188.0,4.3,12.33,47.59359,-54.27349
2023-04-14 01:34:00+00:00,215.0,5.3,218.0,5.9,12.33,47.59359,-54.27349
2023-04-14 01:44:00+00:00,217.0,5.88,218.0,6.92,12.33,47.59359,-54.27349
2023-04-14 01:54:00+00:00,203.0,5.9,201.0,6.46,12.33,47.59359,-54.27349
2023-04-14 02:04:00+00:00,212.0,5.58,216.0,6.34,12.33,47.59359,-54.27349
2023-04-14 02:14:00+00:00,211.0,6.2,209.0,6.83,12.25,47.59359,-54.27349
2023-04-14 02:24:00+00:00,218.0,6.1,216.0,7.03,12.25,47.59359,-54.27349
2023-04-14 02:34:00+00:00,216.0,6.78,215.0,7.23,12.25,47.59359,-54.27349
2023-04-14 02:44:00+00:00,212.0,5.41,213.0,6.56,12.25,47.59359,-54.27349
2023-04-14 02:54:00+00:00,196.0,6.17,196.0,7.99,12.25,47.59359,-54.27349
2023-04-14 03:04:00+00:00,209.0,6.81,209.0,7.68,12.25,47.59359,-54.27349
2023-04-14 03:14:00+00:00,206.0,7.02,210.0,7.93,12.25,47.59359,-54.27349
2023-04-14 03:24:00+00:00,184.0,7.31,195.0,8.13,12.25,47.59359,-54.27349
2023-04-14 03:34:00+00:00,174.0,6.88,204.0,7.8,12.25,47.59359,-54.27349
2023-04-14 03:44:00+00:00,193.0,7.05,205.0,8.17,12.25,47.59359,-54.27349
2023-04-14 03:54:00+00:00,197.0,7.72,207.0,9.14,12.25,47.59359,-54.27349
2023-04-14 04:04:00+00:00,211.0,9.87,213.0,11.53,12.25,47.59359,-54.27349
2023-04-14 04:14:00+00:00,217.0,8.21,213.0,9.63,12.25,47.59359,-54.27349
2023-04-14 04:24:00+00:00,227.0,7.16,227.0,8.41,12.25,47.59359,-54.27349
2023-04-14 04:34:00+00:00,216.0,5.04,227.0,6.07,12.25,47.59359,-54.27349
2023-04-14 04:44:00+00:00,213.0,7.38,217.0,8.57,12.25,47.59359,-54.27349
2023-04-14 04:54:00+00:00,209.0,6.43,215.0,7.55,12.25,47.59359,-54.27349
2023-04-14 05:04:00+00:00,216.0,7.0,212.0,7.88,12.25,47.59359,-54.27349
2023-04-14 05:14:00+00:00,210.0,6.71,211.0,8.19,12.17,47.59359,-54.27349
2023-04-14 05:24:00+00:00,215.0,8.29,210.0,9.52,12.17,47.59359,-54.27349
2023-04-14 05:34:00+00:00,217.0,7.55,214.0,8.21,12.17,47.59359,-54.27349
2023-04-14 05:44:00+00:00,212.0,7.71,212.0,8.32,12.17,47.59359,-54.27349
2023-04-14 05:54:00+00:00,216.0,7.87,221.0,9.11,12.17,47.59359,-54.27349
2023-04-14 06:04:00+00:00,215.0,8.33,213.0,9.18,12.17,47.59359,-54.27349
2023-04-14 06:14:01+00:00,203.0,6.97,212.0,8.4,12.17,47.59359,-54.27349
2023-04-14 06:24:01+00:00,217.0,8.28,220.0,9.84,12.17,47.59359,-54.27349
2023-04-14 06:34:01+00:00,211.0,7.24,215.0,8.22,12.17,47.59359,-54.27349
2023-04-14 06:44:01+00:00,212.0,6.9,216.0,8.38,12.17,47.59359,-54.27349
2023-04-14 06:54:01+00:00,213.0,9.2,213.0,10.07,12.17,47.59359,-54.27349
2023-04-14 07:04:01+00:00,217.0,6.61,217.0,7.53,12.17,47.59359,-54.27349
2023-04-14 07:14:01+00:00,218.0,6.28,220.0,7.04,12.17,47.59359,-54.27349
2023-04-14 07:24:01+00:00,216.0,7.94,217.0,8.93,12.17,47.59359,-54.27349
2023-04-14 07:34:01+00:00,218.0,8.44,218.0,9.41,12.17,47.59359,-54.27349
2023-04-14 07:44:01+00:00,217.0,7.49,219.0,8.53,12.17,47.59359,-54.27349
2023-04-14 07:54:01+00:00,217.0,6.27,216.0,6.96,12.17,47.59359,-54.27349
2023-04-14 08:04:01+00:00,196.0,7.25,207.0,8.54,12.17,47.59359,-54.27349
2023-04-14 08:14:01+00:00,216.0,6.18,215.0,7.05,12.17,47.59359,-54.27349
2023-04-14 08:24:01+00:00,211.0,8.29,213.0,9.15,12.17,47.59359,-54.27349
2023-04-14 08:34:01+00:00,212.0,9.51,205.0,11.12,12.17,47.59359,-54.27349
2023-04-14 08:44:01+00:00,214.0,6.33,212.0,7.09,12.17,47.59359,-54.27349
2023-04-14 08:54:01+00:00,214.0,5.55,216.0,6.33,12.17,47.59359,-54.27349
2023-04-14 09:04:01+00:00,211.0,5.39,217.0,5.88,12.17,47.59359,-54.27349
2023-04-14 09:14:01+00:00,199.0,5.08,206.0,5.62,12.09,47.59359,-54.27349
2023-04-14 09:24:01+00:00,210.0,4.65,216.0,5.27,12.09,47.59359,-54.27349
2023-04-14 09:34:01+00:00,198.0,5.17,214.0,6.03,12.09,47.59359,-54.27349
2023-04-14 09:44:01+00:00,215.0,4.26,213.0,4.69,12.09,47.59359,-54.27349
2023-04-14 09:54:01+00:00,219.0,3.69,217.0,4.16,12.09,47.59359,-54.27349
2023-04-14 10:04:01+00:00,200.0,4.72,216.0,5.72,12.09,47.59359,-54.27349
2023-04-14 10:14:00+00:00,178.0,4.5,209.0,5.05,12.17,47.59359,-54.27349
2023-04-14 10:24:00+00:00,193.0,5.13,214.0,6.04,12.17,47.59359,-54.27349
2023-04-14 10:34:00+00:00,186.0,4.22,214.0,5.29,12.17,47.59359,-54.27349
2023-04-14 10:44:00+00:00,208.0,4.43,214.0,4.91,12.17,47.59359,-54.27349
2023-04-14 10:54:00+00:00,208.0,4.45,213.0,4.99,12.17,47.59359,-54.27349
2023-04-14 11:04:00+00:00,216.0,5.84,214.0,6.39,12.17,47.59359,-54.27349
2023-04-14 11:14:01+00:00,222.0,6.44,218.0,7.51,12.41,47.59359,-54.27349
2023-04-14 11:24:01+00:00,215.0,5.62,217.0,6.35,12.41,47.59359,-54.27349
2023-04-14 11:34:01+00:00,219.0,5.38,225.0,6.28,12.41,47.59359,-54.27349
2023-04-14 11:44:01+00:00,217.0,5.44,220.0,6.44,12.41,47.59359,-54.27349
2023-04-14 11:54:01+00:00,199.0,4.05,218.0,5.76,12.41,47.59359,-54.27349
2023-04-14 12:04:01+00:00,216.0,4.0,224.0,5.07,12.41,47.59359,-54.27349
2023-04-14 12:14:00+00:00,203.0,3.12,229.0,4.55,13.6,47.59359,-54.27349
2023-04-14 12:24:00+00:00,206.0,4.1,222.0,5.3,13.6,47.59359,-54.27349
2023-04-14 12:34:00+00:00,145.0,3.11,146.0,3.4,13.6,47.59359,-54.27349
2023-04-14 12:44:00+00:00,183.0,3.05,225.0,4.05,13.6,47.59359,-54.27349
2023-04-14 12:54:00+00:00,182.0,3.01,227.0,4.65,13.6,47.59359,-54.27349
2023-04-14 13:04:00+00:00,152.0,4.24,153.0,4.71,13.6,47.59359,-54.27349
2023-04-14 13:14:00+00:00,138.0,3.2,141.0,3.61,13.68,47.59359,-54.27349
2023-04-14 13:24:00+00:00,264.0,1.3,271.0,1.97,13.68,47.59359,-54.27349
2023-04-14 13:34:00+00:00,321.0,4.2,316.0,5.08,13.68,47.59359,-54.27349
2023-04-14 13:44:00+00:00,337.0,5.0,337.0,5.68,13.68,47.59359,-54.27349
2023-04-14 13:54:00+00:00,334.0,5.69,336.0,6.89,13.68,47.59359,-54.27349
2023-04-14 14:04:00+00:00,324.0,5.95,323.0,6.71,13.68,47.59359,-54.27349
2023-04-14 14:14:00+00:00,338.0,6.45,337.0,7.66,13.76,47.59359,-54.27349
2023-04-14 14:24:00+00:00,336.0,9.38,330.0,11.32,13.76,47.59359,-54.27349
2023-04-14 14:34:00+00:00,337.0,9.53,333.0,10.72,13.76,47.59359,-54.27349
2023-04-14 14:44:00+00:00,336.0,8.55,326.0,10.67,13.76,47.59359,-54.27349
2023-04-14 14:54:00+00:00,329.0,8.89,327.0,10.71,13.76,47.59359,-54.27349
2023-04-14 15:04:00+00:00,332.0,9.3,330.0,10.75,13.76,47.59359,-54.27349
2023-04-14 15:14:01+00:00,344.0,9.34,325.0,10.51,13.76,47.59359,-54.27349
2023-04-14 15:24:01+00:00,331.0,7.88,327.0,8.76,13.76,47.59359,-54.27349
2023-04-14 15:34:01+00:00,332.0,8.22,337.0,10.41,13.76,47.59359,-54.27349
2023-04-14 15:44:01+00:00,337.0,6.96,326.0,8.46,13.76,47.59359,-54.27349
2023-04-14 15:54:01+00:00,337.0,11.16,346.0,13.43,13.76,47.59359,-54.27349
2023-04-14 16:04:01+00:00,337.0,11.01,336.0,12.57,13.76,47.59359,-54.27349
2023-04-14 16:14:00+00:00,334.0,10.63,334.0,11.51,13.84,47.59359,-54.27349
2023-04-14 16:24:00+00:00,336.0,9.83,329.0,11.63,13.84,47.59359,-54.27349
2023-04-14 16:34:00+00:00,343.0,9.19,326.0,11.09,13.84,47.59359,-54.27349
2023-04-14 16:44:00+00:00,340.0,12.02,339.0,13.63,13.84,47.59359,-54.27349
2023-04-14 16:54:00+00:00,353.0,7.28,353.0,8.58,13.84,47.59359,-54.27349
2023-04-14 17:04:00+00:00,351.0,11.88,341.0,15.73,13.84,47.59359,-54.27349
2023-04-14 17:14:00+00:00,354.0,9.57,357.0,10.17,13.68,47.59359,-54.27349
2023-04-14 17:24:00+00:00,4.0,12.14,3.0,15.15,13.68,47.59359,-54.27349
2023-04-14 17:34:00+00:00,354.0,9.78,357.0,10.78,13.68,47.59359,-54.27349
2023-04-14 17:44:00+00:00,355.0,8.74,358.0,10.42,13.68,47.59359,-54.27349
2023-04-14 17:54:00+00:00,342.0,12.6,341.0,15.03,13.68,47.59359,-54.27349
2023-04-14 18:04:00+00:00,344.0,12.62,337.0,15.27,13.68,47.59359,-54.27349
2023-04-14 18:14:00+00:00,5.0,10.98,358.0,13.58,14.4,47.59359,-54.27349
2023-04-14 18:24:00+00:00,4.0,10.87,2.0,11.94,14.4,47.59359,-54.27349
2023-04-14 18:34:00+00:00,3.0,11.26,1.0,12.79,14.4,47.59359,-54.27349
2023-04-14 18:44:00+00:00,357.0,11.06,358.0,12.33,14.4,47.59359,-54.27349
2023-04-14 18:54:00+00:00,1.0,8.41,3.0,9.79,14.4,47.59359,-54.27349
2023-04-14 19:04:00+00:00,355.0,12.21,357.0,14.01,14.4,47.59359,-54.27349
2023-04-14 19:14:00+00:00,2.0,8.08,4.0,9.45,13.68,47.59359,-54.27349
2023-04-14 19:24:00+00:00,358.0,9.62,358.0,10.8,13.68,47.59359,-54.27349
2023-04-14 19:34:00+00:00,346.0,9.96,342.0,11.32,13.68,47.59359,-54.27349
2023-04-14 19:44:00+00:00,345.0,10.42,335.0,12.65,13.68,47.59359,-54.27349
2023-04-14 19:54:00+00:00,352.0,9.09,355.0,10.21,13.68,47.59359,-54.27349
2023-04-14 20:04:00+00:00,352.0,11.14,355.0,12.61,13.68,47.59359,-54.27349
2023-04-14 20:14:01+00:00,355.0,11.35,354.0,12.73,13.68,47.59359,-54.27349
2023-04-14 20:24:01+00:00,356.0,12.13,356.0,13.88,13.68,47.59359,-54.27349
2023-04-14 20:34:01+00:00,1.0,9.74,358.0,11.57,13.68,47.59359,-54.27349
2023-04-14 20:44:01+00:00,2.0,9.89,3.0,10.93,13.68,47.59359,-54.27349
2023-04-14 20:54:01+00:00,1.0,10.24,1.0,12.38,13.68,47.59359,-54.27349
2023-04-14 21:04:01+00:00,2.0,9.23,11.0,10.43,13.68,47.59359,-54.27349
2023-04-14 21:14:01+00:00,357.0,9.64,356.0,10.87,13.6,47.59359,-54.27349
2023-04-14 21:24:01+00:00,351.0,9.76,350.0,11.38,13.6,47.59359,-54.27349
2023-04-14 21:34:01+00:00,348.0,7.67,352.0,8.18,13.6,47.59359,-54.27349
2023-04-14 21:44:01+00:00,352.0,10.75,340.0,12.68,13.6,47.59359,-54.27349
2023-04-14 21:54:01+00:00,346.0,11.8,347.0,13.8,13.6,47.59359,-54.27349
2023-04-14 22:04:01+00:00,347.0,11.36,348.0,12.91,13.6,47.59359,-54.27349
2023-04-14 22:14:00+00:00,339.0,9.7,335.0,11.2,13.13,47.59359,-54.27349
2023-04-14 22:24:00+00:00,347.0,9.27,354.0,11.0,13.13,47.59359,-54.27349
2023-04-14 22:34:00+00:00,344.0,9.13,338.0,10.91,13.13,47.59359,-54.27349
2023-04-14 22:44:00+00:00,346.0,7.42,337.0,8.81,13.13,47.59359,-54.27349
2023-04-14 22:54:00+00:00,343.0,8.31,344.0,9.97,13.13,47.59359,-54.27349
2023-04-14 23:04:00+00:00,344.0,7.46,338.0,9.07,13.13,47.59359,-54.27349
2023-04-14 23:14:01+00:00,335.0,7.33,335.0,8.31,12.57,47.59359,-54.27349
2023-04-14 23:24:01+00:00,322.0,5.82,321.0,7.19,12.57,47.59359,-54.27349
2023-04-14 23:34:01+00:00,318.0,6.69,308.0,8.33,12.57,47.59359,-54.27349
2023-04-14 23:44:01+00:00,321.0,8.27,321.0,9.51,12.57,47.59359,-54.27349
2023-04-14 23:54:01+00:00,316.0,9.76,320.0,11.55,12.57,47.59359,-54.27349
